星链-37092(STARLINK-37092)

导读

STARLINK-37092(NORAD编号68240)是美国太空探索技术公司(SpaceX)星链计划旗下卫星,于2024年12月8日发射入轨,截至当前已在轨飞行超440天,状态稳定。 该卫星采用Starlink V1.0平台,运行在近地轨道:轨道倾角43.001°,近地点约355.149千米,远地点约356.989千米,轨道周期约91.66分钟,每日绕地球运行超15圈。 作为星链低轨互联网星座的组成部分,它为全球提供高速低延迟卫星宽带服务,助力缩小数字鸿沟,同时可为军事、航空等领域提供通信支撑。

基本信息
目录编号:
68240
目录名称:
STARLINK-37092
国际标识:
2026-054J
轨道中心:
EARTH
卫星名称:
星链-37092
卫星全名:
星链-37092(STARLINK-37092)
卫星状态:
在轨 (已飞行133 天)
发射日期:
2026-03-17 UTC
国别 :
美国 (US)
星等 :
--
轨道信息
数据来源 国际轨道数据
星历时间: 2026-07-27T18:01:22+0800
15小时前
查看轨道信息
半长轴: 6840.818km
偏心率: 0.0000367
轨道倾角: 53.161°
近地点辐角 16.247°
升交点赤经 359.420°
平近点角 343.854°
近地点: 462.429km
远地点: 462.933km
周期: 93.847分钟
每日圈数: 15.344075
详细信息
固有亮度:
5
最大亮度:
2.5
卫星平台:
Starlink V1.0
覆盖范围:
全球
运营商:
太空探索技术公司
运营商所在国:
美国
制造商(研发单位):
太空探索技术公司
制造商所在国:
美国
使用方式:
暂无
卫星简介
Starlink 计划是 SpaceX 推出的全球卫星互联网项目,通过发射低轨道卫星,为全球尤其是偏远地区提供高速、低延迟的互联网服务。自 2019 年起,Starlink 已部署数千颗卫星,旨在缩小全球数字鸿沟,推动互联网普及。该项目还为军事、航空等行业提供通信支持,带来广泛经济效益。
2D轨道图
3D轨道图
轨道高度分析图
轨道倾角分析图
轨道综合分析图
查看轨道综合分析图